This demonstration page uses our WeatherBlox Daily Observations layout. Learn more.

Left ArrowRight Arrow

Hourly Observations for August 18, 2017

Temp ( °F °C ) Dew Point ( °F °C ) Humidity (%) Winds ( mph kmh ) Pressure ( in mb ) Visibility ( mi km ) Precip ( " mm )
12:52 am 00:52 Clear 65 18.3 63 17.2 93 93 SW 5 7 29.97 1015 10 16 0.00 0.00
1:52 am 01:52 Clear 62 16.7 61 16.1 96 96 Calm 29.96 1015 10 16 0.00 0.00
2:52 am 02:52 Clear 63 17.2 61 16.1 93 93 Calm 29.97 1015 10 16 0.00 0.00
3:52 am 03:52 Clear 62 16.7 61 16.1 96 96 SSW 3 6 29.96 1015 10 16 0.00 0.00
4:52 am 04:52 Clear 60 15.6 59 15 96 96 S 6 9 29.97 1015 10 16 0.00 0.00
5:52 am 05:52 Clear 62 16.7 60 15.6 93 93 S 5 7 29.96 1015 10 16 0.00 0.00
6:52 am 06:52 Sunny 61 16.1 59 15 93 93 SSE 7 11 29.98 1015 10 16 0.00 0.00
7:52 am 07:52 Sunny 66 18.9 63 17.2 90 90 S 3 6 29.99 1016 10 16 0.00 0.00
8:52 am 08:52 Sunny 72 22.2 66 18.9 82 82 SSW 7 11 29.99 1016 10 16 0.00 0.00
9:52 am 09:52 Sunny with Mist and Fog 73 22.8 70 21.1 90 90 SSE 5 7 30.00 1016 6 10 0.00 0.00
10:52 am 10:52 Sunny 74 23.3 70 21.1 88 88 SSW 6 9 30.01 1016 10 16 0.00 0.00
11:52 am 11:52 Sunny 79 26.1 73 22.8 82 82 SSW 7 11 30.00 1016 10 16 0.00 0.00
12:52 pm 12:52 Mostly Sunny 83 28.3 72 22.2 70 70 SW 7 11 29.98 1015 10 16 0.00 0.00
1:52 pm 13:52 Sunny 82 27.8 73 22.8 74 74 SSW 10 17 29.97 1015 10 16 0.00 0.00
2:52 pm 14:52 Sunny 83 28.3 73 22.8 72 72 WSW 9 15 29.94 1014 10 16 0.00 0.00
3:52 pm 15:52 Mostly Cloudy 83 28.3 74 23.3 74 74 S 13 20 29.93 1014 10 16 0.00 0.00
4:52 pm 16:52 Sunny 85 29.4 73 22.8 68 68 SSW 12 19 29.92 1013 10 16 0.00 0.00
5:52 pm 17:52 Sunny 83 28.3 73 22.8 72 72 SSW 9 15 29.92 1013 10 16 0.00 0.00
6:52 pm 18:52 Mostly Sunny 79 26.1 67 19.4 67 67 SSW 15 24 29.91 1013 10 16 0.00 0.00
7:52 pm 19:52 Sunny 75 23.9 66 18.9 74 74 SSW 12 19 29.93 1014 10 16 0.00 0.00
8:52 pm 20:52 Clear 72 22.2 66 18.9 82 82 SW 9 15 29.95 1014 10 16 0.00 0.00
9:52 pm 21:52 Clear 71 21.7 67 19.4 87 87 S 9 15 29.95 1014 10 16 0.00 0.00
10:52 pm 22:52 Clear 70 21.1 67 19.4 90 90 S 6 9 29.95 1014 10 16 0.00 0.00
11:52 pm 23:52 Clear 69 20.6 66 18.9 90 90 SSW 7 11 29.94 1014 10 16 0.00 0.00

Powered by AerisWeather